CCM42VO LFMN-LFKB

Flight info

Callsign CCM42VO
Flight time 0h 31m
Altitude 13000
Route SODRI A3 NORKA
Aircraft A320/M-SDE3FGHIRWY/LB1

Departure

Time 2026-05-07 20:08
Airport Nice-Côte d'Azur Airport (LFMN)

Arrival

Time 2026-05-07 20:39
Airport Bastia-Poretta International airport (LFKB)
Time Latitude Longitude Altitude Speed Heading
2026-05-07 19:39 43.66119 7.20684 23 ft 0 kts 261°
2026-05-07 19:58 43.66119 7.20685 21 ft 1 kts 261°
2026-05-07 19:59 43.66124 7.20718 22 ft 4 kts 256°
2026-05-07 19:59 43.66132 7.20753 25 ft 4 kts 242°
2026-05-07 19:59 43.66147 7.20780 23 ft 4 kts 199°
2026-05-07 19:59 43.66157 7.20783 22 ft 0 kts 170°
2026-05-07 20:01 43.66145 7.20786 21 ft 4 kts 170°
2026-05-07 20:02 43.66122 7.20791 21 ft 3 kts 170°
2026-05-07 20:02 43.66060 7.20805 21 ft 13 kts 171°
2026-05-07 20:02 43.65968 7.20826 21 ft 14 kts 171°
2026-05-07 20:02 43.65872 7.20847 22 ft 14 kts 171°
2026-05-07 20:03 43.65770 7.20870 21 ft 16 kts 171°
2026-05-07 20:03 43.65694 7.20887 23 ft 7 kts 171°
2026-05-07 20:03 43.65645 7.20898 21 ft 10 kts 171°
2026-05-07 20:03 43.65541 7.20922 22 ft 17 kts 171°
2026-05-07 20:04 43.65413 7.20951 22 ft 20 kts 171°
2026-05-07 20:04 43.65293 7.20878 21 ft 21 kts 226°
2026-05-07 20:04 43.65185 7.20728 21 ft 23 kts 225°
2026-05-07 20:04 43.65094 7.20604 21 ft 10 kts 224°
2026-05-07 20:05 43.65047 7.20541 21 ft 9 kts 224°
2026-05-07 20:05 43.64993 7.20464 22 ft 16 kts 225°
2026-05-07 20:05 43.64895 7.20331 22 ft 21 kts 225°
2026-05-07 20:05 43.64796 7.20196 22 ft 12 kts 217°
2026-05-07 20:06 43.64781 7.20185 22 ft 0 kts 206°
2026-05-07 20:06 43.64777 7.20183 22 ft 1 kts 206°
2026-05-07 20:06 43.64772 7.20180 22 ft 1 kts 200°
2026-05-07 20:06 43.64725 7.20194 24 ft 14 kts 144°
2026-05-07 20:07 43.64730 7.20326 24 ft 17 kts 47°
2026-05-07 20:07 43.64890 7.20545 24 ft 65 kts 44°
2026-05-07 20:07 43.65382 7.21223 24 ft 131 kts 45°
2026-05-07 20:07 43.66134 7.22261 249 ft 162 kts 46°
2026-05-07 20:08 43.66849 7.23497 860 ft 170 kts 72°
2026-05-07 20:08 43.66744 7.25067 1512 ft 174 kts 122°
2026-05-07 20:08 43.65913 7.26310 2157 ft 184 kts 136°
2026-05-07 20:08 43.64921 7.27594 2524 ft 208 kts 136°
2026-05-07 20:09 43.63833 7.29005 3184 ft 218 kts 136°
2026-05-07 20:09 43.62722 7.30454 4048 ft 221 kts 136°
2026-05-07 20:09 43.61601 7.31926 4918 ft 224 kts 136°
2026-05-07 20:10 43.59136 7.34604 6602 ft 231 kts 159°
2026-05-07 20:10 43.57623 7.35368 7424 ft 233 kts 160°
2026-05-07 20:10 43.56093 7.36135 8260 ft 235 kts 159°
2026-05-07 20:10 43.54550 7.36914 9104 ft 238 kts 159°
2026-05-07 20:11 43.52987 7.37707 9947 ft 240 kts 159°
2026-05-07 20:11 43.51406 7.38509 10668 ft 248 kts 159°
2026-05-07 20:11 43.49707 7.39368 11016 ft 272 kts 160°
2026-05-07 20:11 43.47854 7.40306 11338 ft 296 kts 160°
2026-05-07 20:12 43.45847 7.41327 11625 ft 320 kts 159°
2026-05-07 20:12 43.43846 7.42880 11867 ft 344 kts 139°
2026-05-07 20:12 43.42334 7.45492 12390 ft 356 kts 122°
2026-05-07 20:12 43.41027 7.48419 12869 ft 361 kts 122°
2026-05-07 20:13 43.39724 7.51375 12991 ft 362 kts 122°
2026-05-07 20:13 43.38424 7.54340 13007 ft 362 kts 122°
2026-05-07 20:13 43.37129 7.57296 13012 ft 361 kts 122°
2026-05-07 20:13 43.35831 7.60249 13012 ft 361 kts 122°
2026-05-07 20:14 43.34530 7.63196 13012 ft 361 kts 122°
2026-05-07 20:14 43.33227 7.66141 13016 ft 361 kts 122°
2026-05-07 20:14 43.31919 7.69085 13010 ft 361 kts 122°
2026-05-07 20:14 43.30610 7.72022 13006 ft 361 kts 122°
2026-05-07 20:15 43.29299 7.74962 13010 ft 361 kts 122°
2026-05-07 20:15 43.27988 7.77897 13013 ft 361 kts 122°
2026-05-07 20:15 43.26676 7.80835 13013 ft 361 kts 122°
2026-05-07 20:15 43.25367 7.83771 13009 ft 361 kts 122°
2026-05-07 20:16 43.24058 7.86706 13013 ft 361 kts 122°
2026-05-07 20:16 43.23191 7.88650 13014 ft 361 kts 122°
2026-05-07 20:16 43.21881 7.91585 13010 ft 361 kts 122°
2026-05-07 20:16 43.20570 7.94517 13008 ft 361 kts 122°
2026-05-07 20:17 43.19258 7.97447 13010 ft 361 kts 122°
2026-05-07 20:17 43.17943 8.00377 13012 ft 361 kts 122°
2026-05-07 20:17 43.16625 8.03310 13014 ft 361 kts 122°
2026-05-07 20:17 43.15308 8.06236 13008 ft 361 kts 122°
2026-05-07 20:18 43.13989 8.09164 13002 ft 362 kts 122°
2026-05-07 20:18 43.12667 8.12097 13003 ft 362 kts 122°
2026-05-07 20:18 43.11344 8.15031 13004 ft 362 kts 122°
2026-05-07 20:18 43.10018 8.17969 13007 ft 362 kts 123°
2026-05-07 20:19 43.08695 8.20898 13012 ft 362 kts 123°
2026-05-07 20:19 43.07367 8.23831 13003 ft 362 kts 123°
2026-05-07 20:19 43.06017 8.26801 13014 ft 379 kts 123°
2026-05-07 20:19 43.04589 8.29935 13010 ft 395 kts 123°
2026-05-07 20:20 43.03131 8.33142 13006 ft 398 kts 123°
2026-05-07 20:20 43.01804 8.36468 13002 ft 400 kts 114°
2026-05-07 20:20 43.00932 8.40084 13005 ft 402 kts 103°
2026-05-07 20:20 43.00374 8.43820 13008 ft 402 kts 102°
2026-05-07 20:21 42.99837 8.47517 13003 ft 402 kts 102°
2026-05-07 20:21 42.99300 8.51261 13002 ft 402 kts 102°
2026-05-07 20:21 42.98768 8.55009 13005 ft 402 kts 102°
2026-05-07 20:21 42.98237 8.58755 13002 ft 402 kts 102°
2026-05-07 20:22 42.97707 8.62501 13007 ft 402 kts 102°
2026-05-07 20:22 42.97173 8.66245 13005 ft 402 kts 102°
2026-05-07 20:22 42.96641 8.69944 12998 ft 387 kts 102°
2026-05-07 20:22 42.96133 8.73461 12997 ft 371 kts 103°
2026-05-07 20:23 42.95551 8.76859 13004 ft 366 kts 109°
2026-05-07 20:23 42.94575 8.80046 13007 ft 363 kts 120°
2026-05-07 20:23 42.93206 8.82930 13003 ft 362 kts 128°
2026-05-07 20:23 42.91702 8.85680 13001 ft 362 kts 128°
2026-05-07 20:24 42.90193 8.88431 13001 ft 362 kts 128°
2026-05-07 20:24 42.88685 8.91171 13006 ft 362 kts 128°
2026-05-07 20:24 42.87172 8.93918 12997 ft 363 kts 128°
2026-05-07 20:24 42.85657 8.96670 13001 ft 363 kts 128°
2026-05-07 20:25 42.84140 8.99422 13008 ft 363 kts 129°
2026-05-07 20:25 42.82619 9.02173 13004 ft 361 kts 129°
2026-05-07 20:25 42.81142 9.04844 12917 ft 344 kts 129°
2026-05-07 20:25 42.79757 9.07353 12602 ft 322 kts 129°
2026-05-07 20:26 42.78400 9.09799 11551 ft 326 kts 129°
2026-05-07 20:26 42.77028 9.12263 10650 ft 326 kts 129°
2026-05-07 20:26 42.75667 9.14710 9890 ft 322 kts 129°
2026-05-07 20:26 42.74316 9.17144 9607 ft 324 kts 129°
2026-05-07 20:27 42.72961 9.19580 9306 ft 322 kts 129°
2026-05-07 20:27 42.71612 9.22006 8998 ft 321 kts 128°
2026-05-07 20:27 42.70268 9.24418 8690 ft 319 kts 128°
2026-05-07 20:27 42.68933 9.26813 8383 ft 317 kts 128°
2026-05-07 20:28 42.67601 9.29195 8081 ft 315 kts 128°
2026-05-07 20:28 42.66278 9.31559 7772 ft 313 kts 128°
2026-05-07 20:28 42.64964 9.33910 7480 ft 311 kts 128°
2026-05-07 20:28 42.63657 9.36244 7184 ft 310 kts 128°
2026-05-07 20:29 42.62367 9.38545 6955 ft 300 kts 128°
2026-05-07 20:29 42.61131 9.40747 6830 ft 286 kts 128°
2026-05-07 20:29 42.59943 9.42863 6532 ft 280 kts 128°
2026-05-07 20:29 42.58771 9.44950 6150 ft 276 kts 128°
2026-05-07 20:30 42.57560 9.46945 5807 ft 272 kts 136°
2026-05-07 20:30 42.56070 9.48491 5545 ft 270 kts 149°
2026-05-07 20:30 42.54443 9.49754 5288 ft 270 kts 149°
2026-05-07 20:30 42.52819 9.51017 5027 ft 268 kts 149°
2026-05-07 20:31 42.51201 9.52277 4772 ft 268 kts 149°
2026-05-07 20:31 42.49589 9.53531 4508 ft 267 kts 149°
2026-05-07 20:31 42.48001 9.54766 4254 ft 266 kts 149°
2026-05-07 20:31 42.46403 9.56011 4033 ft 261 kts 149°
2026-05-07 20:32 42.44872 9.57202 3945 ft 246 kts 149°
2026-05-07 20:32 42.43425 9.58321 3842 ft 233 kts 149°
2026-05-07 20:32 42.42030 9.59383 3740 ft 221 kts 149°
2026-05-07 20:32 42.40722 9.60374 3641 ft 217 kts 149°
2026-05-07 20:33 42.39410 9.61372 3552 ft 216 kts 149°
2026-05-07 20:33 42.38073 9.62297 3466 ft 217 kts 162°
2026-05-07 20:33 42.36587 9.62286 3369 ft 219 kts 199°
2026-05-07 20:33 42.35384 9.61069 3274 ft 220 kts 237°
2026-05-07 20:34 42.34959 9.59124 3186 ft 219 kts 275°
2026-05-07 20:34 42.35471 9.57233 3100 ft 216 kts 312°
2026-05-07 20:34 42.36685 9.56124 3005 ft 212 kts 343°
2026-05-07 20:34 42.38102 9.55533 2916 ft 213 kts 345°
2026-05-07 20:35 42.39501 9.54963 2829 ft 205 kts 345°
2026-05-07 20:35 42.40834 9.54410 2714 ft 197 kts 345°
2026-05-07 20:35 42.42137 9.53867 2494 ft 194 kts 345°
2026-05-07 20:35 42.43420 9.53332 2281 ft 191 kts 345°
2026-05-07 20:36 42.44676 9.52807 2004 ft 187 kts 344°
2026-05-07 20:36 42.45900 9.52295 1745 ft 179 kts 344°
2026-05-07 20:36 42.47045 9.51816 1508 ft 165 kts 344°
2026-05-07 20:36 42.48072 9.51382 1372 ft 146 kts 343°
2026-05-07 20:37 42.49007 9.50981 1137 ft 138 kts 343°
2026-05-07 20:37 42.49908 9.50588 911 ft 135 kts 344°
2026-05-07 20:37 42.50807 9.50260 735 ft 133 kts 345°
2026-05-07 20:37 42.51698 9.49885 559 ft 134 kts 340°
2026-05-07 20:38 42.52588 9.49507 399 ft 134 kts 343°
2026-05-07 20:38 42.53481 9.49124 230 ft 135 kts 341°
2026-05-07 20:38 42.54377 9.48746 45 ft 134 kts 342°
2026-05-07 20:38 42.55140 9.48425 34 ft 92 kts 342°
2026-05-07 20:39 42.55595 9.48236 32 ft 53 kts 342°
2026-05-07 20:39 42.55893 9.48111 28 ft 30 kts 343°
2026-05-07 20:39 42.55959 9.47991 26 ft 18 kts 256°
2026-05-07 20:39 42.55895 9.47863 26 ft 17 kts 190°
2026-05-07 20:40 42.55774 9.47905 28 ft 18 kts 163°
2026-05-07 20:40 42.55650 9.47957 31 ft 19 kts 162°
2026-05-07 20:40 42.55522 9.48011 33 ft 20 kts 163°
2026-05-07 20:40 42.55387 9.48068 35 ft 21 kts 163°
2026-05-07 20:41 42.55237 9.48130 35 ft 24 kts 163°
2026-05-07 20:41 42.55071 9.48200 35 ft 26 kts 162°
2026-05-07 20:41 42.54895 9.48263 35 ft 25 kts 171°
2026-05-07 20:41 42.54816 9.48285 34 ft 6 kts 166°
2026-05-07 20:42 42.54776 9.48301 33 ft 5 kts 163°
2026-05-07 20:42 42.54757 9.48301 35 ft 4 kts 194°
2026-05-07 20:42 42.54739 9.48257 35 ft 5 kts 255°
2026-05-07 20:42 42.54728 9.48208 35 ft 2 kts 253°
2026-05-07 20:43 42.54727 9.48205 35 ft 0 kts 253°